SCP
0 0 0 0 0 0 0 0 0 0 0 0 0 0 0 0 0 0 0 0 0 0 0 0 0 0 0 0 0 0 0 0 0 0 0 0 0 0
0 0 0 0 0 0 0 0 0 0 0 0 0 0 0 0 0 0 0 0 0 0 0 0 0 0 0 0 0 0 0 0 0 0 0 0 0 0
0 0 0 0 0 0 0 0 0 0 0 0 0 0 0 0 0 0 0 0 0 0 0 0 0 0 0 0 0 0 0 0 0 0 0 0 0 0
0 0 0 0 0 0 0 0 0 0 0 0 0 0 0 0 0 0 0 0 0 0 0 0 0 0 0 0 0 0 0 0 0 0 0 0 0 0
0 0 0 0 0 0 0 0 0 0 0 0 0 0 0 0 0 0 0 0 0 0 0 0 0 0 0 0 0 0 0 0 0 0 0 0 0 0
0 0 0 0 0 0 0 0 0 0 0 0 0 0 0 0 0 0 0 0 0 0 0 0 0 0 0 0 0 0 0 0 0 0 0 0 0 0
0 0 0 0 0 0 0 0 0 0 0 0 0 0 0 0 0 0 0 0 0 0 0 0 0 0 0 0 0 0 0 0 0 0 0 0 0 0
0 0 0 0 0 0 0 0 0 0 0 0 0 0 0 0 0 0 0 0 0 0 0 0 0 0 0 0 0 0 0 0 0 0 0 0 0 0
0 0 0 0 0 0 0 0 0 0 0 0 0 0 0 0 0 0 0 0 0 0 0 0 0 0 0 0 0 0 0 0 0 0 0 0 0 0
0 0 0 0 0 0 0 0 0 0 0 0 0 0 0 0 0 0 0 0 0 0 0 0 0 0 0 0 0 0 0 0 0 0 0 0 0 0
0 0 0 0 0 0 0 0 0 0 0 0 0 0 0 0 0 0 0 0 0 0 0 0 0 0 0 0 0 0 0 0 0 0 0 0 0 0
0 0 0 0 0 0 0 0 0 0 0 0 0 0 0 0 0 0 0 0 0 0 0 0 0 0 0 0 0 0 0 0 0 0 0 0 0 0
0 0 0 0 0 0 0 0 0 0 0 0 0 0 0 0 0 0 0 0 0 0 0 0 0 0 0 0 0 0 0 0 0 0 0 0 0 0
0 0 0 0 0 0 0 0 0 0 0 0 0 0 0 0 0 0 0 0 0 0 0 0 0 0 0 0 0 0 0 0 0 0 0 0 0 0
0 0 0 0 0 0 0 0 0 0 0 0 0 0 0 0 0 0 0 0 0 0 0 0 0 0 0 0 0 0 0 0 0 0 0 0 0 0
0 0 0 0 0 0 0 0 0 0 0 0 0 0 0 0 0 0 0 0 0 0 0 0 0 0 0 0 0 0 0 0 0 0 0 0 0 0
0 0 0 0 0 0 0 0 0 0 0 0 0 0 0 0 0 0 0 0 0 0 0 0 0 0 0 0 0 0 0 0 0 0 0 0 0 0
0 0 0 0 0 0 0 0 0 0 0 0 0 0 0 0 0 0 0 0 0 0 0 0 0 0 0 0 0 0 0 0 0 0 0 0 0 0
0 0 0 0 0 0 0 0 0 0 0 0 0 0 0 0 0 0 0 0 0 0 0 0 0 0 0 0 0 0 0 0 0 0 0 0 0 0
0 0 0 0 0 0 0 0 0 0 0 0 0 0 0 0 0 0 0 0 0 0 0 0 0 0 0 0 0 0 0 0 0 0 0 0 0 0
0 0 0 0 0 0 0 0 0 0 0 0 0 0 0 0 0 0 0 0 0 0 0 0 0 0 0 0 0 0 0 0 0 0 0 0 0 0
0 0 0 0 0 0 0 0 0 0 0 0 0 0 0 0 0 0 0 0 0 0 0 0 0 0 0 0 0 0 0 0 0 0 0 0 0 0
0 0 0 0 0 0 0 0 0 0 0 0 0 0 0 0 0 0 0 0 0 0 0 0 0 0 0 0 0 0 0 0 0 0 0 0 0 0
Wind_Speed
1 1 1 1 1 1 1 2 2 1 1 2 1 2 2 2 3 3 4 6 6 6 7 7 7 7 7 7 7 7 7 7 6 6 6 6 6 7
1 2 2 1 1 1 1 1 2 3 2 2 1 2 2 1 2 3 3 3 3 4 4 5 5 5 6 6 6 6 6 6 5 5 6 6 6 6
2 2 2 2 1 1 1 0 1 1 1 1 1 1 1 2 1 2 2 2 2 2 2 3 3 4 4 4 4 5 5 5 5 5 5 5 5 6
1 1 1 1 1 1 0 0 0 1 2 1 0 1 1 2 2 2 2 2 2 2 1 2 3 3 3 3 4 4 4 5 5 5 5 5 6 6
1 1 1 1 0 1 0 0 1 1 1 1 1 1 1 1 2 2 2 2 2 1 2 3 3 3 3 3 4 4 4 4 5 5 6 6 7 7
1 0 0 0 0 0 0 0 1 0 1 1 1 1 1 1 2 3 3 2 2 2 2 3 3 5 5 5 5 5 5 5 5 6 6 7 7 8
1 1 1 2 3 2 1 1 1 1 1 1 2 2 2 2 2 3 3 3 3 2 3 3 3 4 4 6 7 7 6 7 7 7 7 7 8 9
1 1 2 2 2 2 1 2 2 2 3 2 3 3 4 3 3 3 4 4 4 1 4 4 3 4 4 4 2 4 6 7 7 7 8 8 9 10
1 1 1 1 2 2 3 4 3 3 4 5 4 4 4 4 4 4 4 5 5 4 4 5 4 5 5 3 3 5 7 8 8 8 9 9 10 11
2 2 2 2 1 2 2 2 2 1 2 4 4 5 5 4 4 5 6 6 6 4 3 5 5 5 5 5 4 6 8 9 9 10 10 10 10 11
2 1 2 1 2 1 3 3 3 2 2 2 4 4 4 3 4 4 4 5 6 4 2 4 6 6 6 6 4 6 8 9 10 11 11 10 10 11
2 2 1 1 1 1 3 3 3 3 3 2 3 4 4 3 5 5 4 5 6 5 2 3 6 6 6 4 4 4 6 8 10 11 12 11 10 9
2 1 1 2 1 1 4 3 4 5 4 3 3 3 2 2 2 4 4 5 6 6 4 4 6 6 6 7 7 6 6 6 6 8 10 10 10 9
1 0 2 2 1 1 2 3 4 4 3 3 3 3 3 3 3 4 5 5 6 7 6 5 5 6 8 9 8 7 6 7 7 7 7 6 9 11
1 3 2 1 1 1 0 3 3 2 2 3 3 3 3 4 4 4 5 5 6 6 5 6 6 6 7 8 9 8 8 7 7 7 8 7 7 7
2 3 3 2 1 1 1 1 2 2 3 3 4 4 4 3 3 4 4 4 5 5 4 5 6 7 7 9 8 9 8 7 7 7 8 8 8 8
1 1 1 1 0 0 1 1 2 2 2 3 3 4 4 4 4 4 4 5 5 6 6 4 5 6 8 8 8 8 8 8 8 8 9 9 9 9
2 1 1 1 1 1 1 1 2 2 3 3 3 3 4 4 4 4 4 5 6 6 6 6 6 6 6 6 6 9 8 9 9 9 9 10 10 9
2 1 1 1 1 1 2 2 2 3 3 3 3 4 4 4 5 5 5 5 6 6 6 6 6 7 9 10 7 5 9 9 9 9 9 10 11 11
1 0 1 1 1 2 2 2 2 3 3 3 4 4 4 5 5 5 6 7 7 7 7 7 6 7 9 11 11 10 8 9 10 11 11 11 11 11
0 0 1 1 1 2 2 2 3 3 3 4 4 4 5 5 5 6 6 7 7 7 8 8 7 8 9 9 10 10 9 8 9 10 12 12 12 11
0 1 1 1 2 2 2 2 2 3 4 4 4 4 5 5 6 7 7 7 7 8 9 8 9 8 8 9 11 13 12 11 10 12 13 13 11 11
0 1 1 1 1 2 2 3 3 3 3 4 4 4 5 5 6 6 7 7 8 9 9 9 9 8 9 9 11 11 15 14 11 11 10 10 13 16
Wind_Direction
53 63 45 60 19 1 347 327 324 337 62 67 62 52 30 36 11 11 33 46 31 30 34 35 35 31 29 31 32 31 29 29 29 26 24 23 22 22
49 41 45 60 53 42 26 352 335 331 9 52 49 55 40 23 36 356 19 57 46 29 30 31 29 25 23 22 22 22 21 20 18 16 15 12 8 7
107 93 79 51 73 74 58 13 339 329 342 46 60 42 24 355 15 342 344 337 70 73 25 15 11 7 8 4 5 4 0 360 358 356 353 351 349 348
79 82 83 92 54 37 18 343 3 332 321 343 8 352 328 345 334 324 323 326 328 84 17 331 330 330 340 345 347 345 341 339 337 332 329 327 326 326
97 74 67 100 125 94 10 347 356 3 325 295 335 1 305 325 308 299 292 298 297 227 223 253 269 279 288 305 311 312 314 316 316 314 312 313 313 312
137 120 23 359 352 35 230 332 323 303 295 285 295 292 295 313 291 296 296 279 283 291 282 266 247 246 251 266 276 284 290 295 295 296 298 299 300 301
172 150 70 39 24 0 341 324 296 280 274 281 287 290 287 290 297 298 298 301 288 280 285 270 258 257 243 236 246 263 272 277 280 283 286 288 290 291
194 195 155 154 148 185 263 317 315 295 294 284 284 289 302 300 303 293 294 298 296 278 284 282 270 271 270 267 257 254 265 271 275 279 283 285 287 289
231 216 188 169 208 224 191 201 217 240 272 288 290 297 303 309 297 285 286 292 297 314 299 287 279 276 276 271 239 257 266 269 272 275 279 283 285 287
226 239 226 217 183 276 259 248 259 254 257 262 280 295 311 317 299 293 297 290 287 279 277 288 291 288 289 279 234 246 261 269 273 273 277 282 285 285
212 229 261 264 78 277 258 262 273 270 200 243 298 308 328 319 302 284 281 281 287 284 247 280 299 302 291 280 261 233 250 261 267 269 272 277 282 282
202 204 137 297 39 263 261 270 280 293 292 254 245 244 258 240 231 258 280 286 294 297 307 286 299 309 297 282 286 278 263 256 256 259 264 270 276 277
212 206 118 122 185 279 281 293 312 307 297 293 293 297 291 289 266 262 274 281 287 289 315 302 299 300 291 297 298 292 290 291 280 269 257 257 261 265
215 189 93 108 149 275 297 332 312 293 287 291 296 306 310 310 306 298 289 281 278 286 298 297 290 295 295 293 295 297 294 291 290 291 292 277 259 256
110 80 88 121 212 199 61 303 291 295 301 297 303 312 318 318 316 308 299 293 287 282 286 286 283 287 285 287 294 299 301 298 293 292 294 293 290 283
164 133 144 141 202 338 313 294 317 331 315 309 314 316 317 314 311 313 308 307 296 291 288 284 281 281 281 284 287 291 295 296 299 298 295 291 289 286
161 170 175 163 178 340 342 350 335 326 319 317 316 320 320 318 317 320 312 306 303 306 308 305 292 282 277 282 287 289 294 296 297 299 295 291 287 285
144 172 198 242 284 314 323 328 336 335 332 326 321 318 317 317 317 317 311 307 305 306 308 311 309 302 293 275 252 283 292 297 299 298 292 291 291 292
170 189 244 290 313 320 324 323 327 335 330 324 321 321 319 319 317 314 313 310 307 307 308 310 310 308 305 304 300 257 292 298 299 296 294 291 292 295
202 244 309 327 329 324 323 321 322 324 323 324 323 323 322 318 316 313 311 312 310 307 306 307 308 308 303 302 303 300 278 290 299 299 300 297 293 292
166 335 343 339 333 328 330 327 325 324 326 322 321 322 319 316 314 313 312 312 306 306 308 310 314 305 295 294 292 294 299 286 285 292 300 300 300 299
62 14 3 352 343 341 336 328 323 323 323 320 321 321 320 318 318 317 315 313 311 310 309 307 309 305 301 298 299 301 304 304 292 275 270 273 288 296
30 15 360 350 342 337 329 322 322 321 321 321 322 321 319 315 312 309 307 306 307 307 307 307 308 305 302 300 300 301 304 307 305 302 293 279 268 273